Regional Weather Roundup
Issued by NWS

Home | Current Version | Previous Version | Graphics & Text | Print | Product List | Glossary On
Versions: 1 2 3 4 5 6 7 8 9 10 11 12 13 14 15 16 17 18 19 20 21 22 23 24 25 26 27 28 29 30 31 32 33 34 35 36 37 38 39 40 41 42 43 44 45 46 47 48 49 50
000
ASUS43 KOAX 220810
RWRNE

WEATHER ROUNDUP FOR NEBRASKA
NATIONAL WEATHER SERVICE OMAHA NE
300 AM CDT SUN OCT 22 2017

NOTES: SATELLITE DATA IS BEING USED TO AUGMENT CLOUD COVER ABOVE
       12000 FEET.
       "FAIR" INDICATES FEW OR NO CLOUDS BELOW 12,000 FEET WITH NO
       SIGNIFICANT WEATHER AND/OR OBSTRUCTIONS TO VISIBILITY.


NEZ001>004-019>022-054>056-220900-
NEBRASKA PANHANDLE

CITY           SKY/WX    TMP DP  RH WIND       PRES   REMARKS
SCOTTSBLUFF    CLEAR     45  18  34 W17G26    30.07R
ALLIANCE       CLEAR     26  17  68 W9        30.06R HAZE    WCI  17
CHADRON        CLEAR     29  14  53 SW5       30.04R WCI  24
GORDON         FAIR      28  20  71 SW5       30.03R WCI  23
KIMBALL        CLEAR     32  18  55 CALM      30.10R
SIDNEY         CLEAR     29  16  58 NW8       30.11R WCI  21
$$

NEZ057>060-069>072-079>082-220900-
SOUTHWEST NEBRASKA

CITY           SKY/WX    TMP DP  RH WIND       PRES   REMARKS
NORTH PLATTE   CLEAR     30  25  81 CALM      30.09R
IMPERIAL       CLEAR     39  21  48 W9        30.11R WCI  33
LEXINGTON      CLEAR     32  27  83 W6        30.07R WCI  26
MCCOOK         CLEAR     33  25  72 SW9       30.09S WCI  25
OGALLALA       CLEAR     32  24  71 W3        30.10R
$$

NEZ005>010-023>029-035>040-094-220900-
NORTH CENTRAL NEBRASKA

CITY           SKY/WX    TMP DP  RH WIND       PRES   REMARKS
VALENTINE      CLEAR     32  28  85 SW3       30.03S
AINSWORTH      CLEAR     34  30  83 SW5       30.03S WCI  30
BROKEN BOW     CLEAR     30  25  81 CALM      30.05S
O`NEILL        CLEAR     38  32  80 W7        30.00F WCI  32
ORD            CLEAR     32  29  88 CALM      30.04R
THEDFORD       CLEAR     32  26  78 W5        30.07R WCI  28
$$

NEZ041-046>049-061>064-073>077-083>087-220900-
SOUTH CENTRAL NEBRASKA

CITY           SKY/WX    TMP DP  RH WIND       PRES   REMARKS
GRAND ISLAND   CLOUDY    38  36  92 W8        30.04F WCI  32
AURORA         PTCLDY    39  36  87 W6        30.04R
HASTINGS       PTCLDY    40  34  79 W6        30.06R
HEBRON         PTCLDY    44  40  85 CALM      30.05R
HOLDREGE       CLEAR     35  28  77 NW5       30.05F WCI  31
KEARNEY        CLOUDY    36  29  75 W8        30.06R WCI  30
YORK           PTCLDY    41  37  87 W7        30.03R
$$

NEZ011>018-030>034-042>045-220900-
NORTHEAST NEBRASKA

CITY           SKY/WX    TMP DP  RH WIND       PRES   REMARKS
NORFOLK        CLOUDY    37  33  85 CALM      30.01S
ALBION         CLEAR     32  32  97 CALM      30.02S
BLAIR          CLOUDY    48  41  76 W3        30.00R
COLUMBUS       CLOUDY    39  36  89 W6        30.02R WCI  35
FREMONT        CLOUDY    45  40  84 W7        30.01R
TEKAMAH        CLOUDY    45  41  86 CALM      30.01R
WAYNE          PTCLDY    36  34  91 S5        30.00R WCI  32
$$

NEZ050>053-065>068-078-088>093-220900-
SOUTHEAST NEBRASKA

CITY           SKY/WX    TMP DP  RH WIND       PRES   REMARKS
LINCOLN        CLOUDY    46  40  79 CALM      30.03R
OMAHA EPPLEY   CLOUDY    49  41  74 NW5       30.01R
BEATRICE       CLOUDY    47  42  81 W3        30.04R
FALLS CITY     MOCLDY    51  43  74 NW7       30.00R
NEBRASKA CITY  CLOUDY    50  43  78 W5        30.01R
PLATTSMOUTH    CLOUDY    49  43  79 W6        30.00R
$$

NEZ044-045-051>053-067-220900-
OMAHA AREA

CITY           SKY/WX    TMP DP  RH WIND       PRES   REMARKS
OMAHA EPPLEY   CLOUDY    49  41  74 NW5       30.01R
BLAIR          CLOUDY    48  41  76 W3        30.00R
FREMONT        CLOUDY    45  40  84 W7        30.01R
MILLARD        MOCLDY    50  45  83 CALM      30.01R
OFFUTT AFB     CLOUDY    48  43  83 NW6       30.00R
PLATTSMOUTH    CLOUDY    49  43  79 W6        30.00R
WAHOO          FAIR      47  40  76 CALM      30.01R
$$



USA.gov is the U.S. government's official web portal to all federal, state and local government web resources and services.